| time (UTC) | temp C | wind direction | speed KPH | gust KPH | rain 1hr cm | rain 24hr cm | rain mn cm | humidity % | barometer mb |
| 20260904172022 | 12 | 0.0 | 0.0 | 0.00 | 0.00 | 0.00 | 87 | 997.4 | |
| 20260904171017 | 12 | 172 | 0.0 | 1.6 | 0.00 | 0.00 | 0.00 | 86 | 997.4 |
| 20260904170052 | 12 | 0.0 | 0.0 | 0.00 | 0.00 | 0.00 | 87 | 997.4 | |
| 20260904165028 | 13 | 179 | 0.0 | 1.6 | 0.00 | 0.00 | 0.00 | 84 | 997.4 |
| 20260904164043 | 13 | 114 | 3.2 | 6.4 | 0.00 | 0.00 | 0.00 | 82 | 997.5 |
| 20260904163018 | 13 | 129 | 3.2 | 6.4 | 0.00 | 0.00 | 0.00 | 82 | 997.4 |
| 20260904162033 | 13 | 134 | 3.2 | 4.8 | 0.00 | 0.00 | 0.00 | 81 | 997.4 |
| 20260904161029 | 13 | 138 | 1.6 | 4.8 | 0.00 | 0.00 | 0.00 | 80 | 997.4 |
| 20260904160025 | 13 | 117 | 3.2 | 6.4 | 0.00 | 0.00 | 0.00 | 79 | 997.5 |
| 20260904155020 | 14 | 121 | 1.6 | 6.4 | 0.00 | 0.00 | 0.00 | 78 | 997.5 |
| 20260904154035 | 14 | 106 | 4.8 | 9.7 | 0.00 | 0.00 | 0.00 | 78 | 997.5 |
| 20260904153031 | 15 | 113 | 3.2 | 9.7 | 0.00 | 0.00 | 0.00 | 77 | 997.5 |
| 20260904152106 | 15 | 118 | 3.2 | 6.4 | 0.00 | 0.00 | 0.00 | 77 | 997.6 |
| 20260904151022 | 15 | 138 | 1.6 | 9.7 | 0.00 | 0.00 | 0.00 | 77 | 997.6 |
| 20260904150016 | 15 | 111 | 3.2 | 11.3 | 0.00 | 0.00 | 0.00 | 76 | 997.7 |
| 20260904145032 | 15 | 112 | 3.2 | 6.4 | 0.00 | 0.00 | 0.00 | 75 | 997.6 |
| 20260904144028 | 15 | 102 | 6.4 | 12.9 | 0.00 | 0.00 | 0.00 | 75 | 997.6 |
| 20260904143103 | 16 | 88 | 3.2 | 9.7 | 0.00 | 0.00 | 0.00 | 74 | 997.8 |
| 20260904142038 | 16 | 129 | 1.6 | 4.8 | 0.00 | 0.00 | 0.00 | 74 | 997.7 |
| 20260904141034 | 16 | 153 | 1.6 | 4.8 | 0.00 | 0.00 | 0.00 | 73 | 997.7 |
| 20260904140049 | 16 | 126 | 3.2 | 6.4 | 0.00 | 0.00 | 0.00 | 70 | 997.8 |
| 20260904135045 | 17 | 160 | 1.6 | 4.8 | 0.00 | 0.00 | 0.00 | 69 | 997.9 |
| 20260904134040 | 16 | 128 | 1.6 | 4.8 | 0.00 | 0.00 | 0.00 | 71 | 997.9 |
| 20260904133020 | 15 | 155 | 1.6 | 3.2 | 0.00 | 0.00 | 0.00 | 74 | 997.9 |
| 20260904132031 | 15 | 124 | 1.6 | 6.4 | 0.00 | 0.00 | 0.00 | 73 | 998.1 |
| 20260904131026 | 16 | 107 | 3.2 | 6.4 | 0.00 | 0.00 | 0.00 | 71 | 998.1 |
| 20260904130022 | 16 | 112 | 3.2 | 6.4 | 0.00 | 0.00 | 0.00 | 71 | 998.1 |
| 20260904125017 | 16 | 114 | 4.8 | 11.3 | 0.00 | 0.00 | 0.00 | 69 | 998.1 |
| 20260904124032 | 18 | 101 | 4.8 | 9.7 | 0.00 | 0.00 | 0.00 | 60 | 998.1 |
| 20260904123047 | 18 | 78 | 3.2 | 11.3 | 0.00 | 0.00 | 0.00 | 59 | 998.1 |
| 20260904122042 | 17 | 146 | 1.6 | 4.8 | 0.00 | 0.00 | 0.00 | 61 | 998.3 |
| 20260904121058 | 17 | 126 | 3.2 | 6.4 | 0.00 | 0.00 | 0.00 | 62 | 998.4 |
| 20260904120031 | 17 | 176 | 1.6 | 4.8 | 0.00 | 0.00 | 0.00 | 60 | 998.4 |
| 20260904115027 | 16 | 176 | 0.0 | 3.2 | 0.00 | 0.00 | 0.00 | 65 | 998.7 |
| 20260904114043 | 16 | 135 | 1.6 | 3.2 | 0.00 | 0.00 | 0.00 | 64 | 998.7 |
| 20260904113017 | 16 | 123 | 1.6 | 6.4 | 0.00 | 0.00 | 0.00 | 63 | 998.8 |
| 20260904112033 | 17 | 118 | 3.2 | 6.4 | 0.00 | 0.00 | 0.00 | 62 | 998.9 |
| 20260904111028 | 17 | 235 | 3.2 | 11.3 | 0.00 | 0.00 | 0.00 | 63 | 998.9 |
| 20260904110044 | 18 | 222 | 1.6 | 4.8 | 0.00 | 0.00 | 0.00 | 63 | 999.0 |
| 20260904105019 | 16 | 201 | 1.6 | 4.8 | 0.00 | 0.00 | 0.00 | 65 | 999.1 |
| 20260904104035 | 16 | 210 | 3.2 | 6.4 | 0.00 | 0.00 | 0.00 | 65 | 999.2 |
| 20260904103030 | 16 | 238 | 3.2 | 6.4 | 0.00 | 0.00 | 0.00 | 63 | 999.3 |
| 20260904102026 | 16 | 220 | 3.2 | 9.7 | 0.00 | 0.00 | 0.00 | 66 | 999.3 |
| 20260904101021 | 16 | 177 | 1.6 | 4.8 | 0.00 | 0.00 | 0.00 | 66 | 999.6 |
| 20260904100017 | 16 | 272 | 3.2 | 4.8 | 0.00 | 0.00 | 0.00 | 66 | 999.7 |
| 20260904095032 | 16 | 140 | 1.6 | 4.8 | 0.00 | 0.00 | 0.00 | 66 | 999.8 |
| 20260904094028 | 15 | 148 | 1.6 | 3.2 | 0.00 | 0.00 | 0.00 | 68 | 999.7 |
| 20260904093023 | 16 | 150 | 1.6 | 4.8 | 0.00 | 0.00 | 0.00 | 68 | 999.8 |
| 20260904092038 | 16 | 182 | 1.6 | 3.2 | 0.00 | 0.00 | 0.00 | 67 | 999.9 |
| 20260904091114 | 16 | 0.0 | 0.0 | 0.00 | 0.00 | 0.00 | 67 | 999.9 | |
| 20260904090049 | 16 | 130 | 0.0 | 1.6 | 0.00 | 0.00 | 0.00 | 69 | 1000.0 |
| 20260904085024 | 15 | 0.0 | 0.0 | 0.00 | 0.00 | 0.00 | 72 | 1000.0 | |
| 20260904084059 | 15 | 232 | 0.0 | 1.6 | 0.00 | 0.00 | 0.00 | 72 | 1000.2 |
| 20260904083035 | 15 | 207 | 0.0 | 1.6 | 0.00 | 0.00 | 0.00 | 73 | 1000.0 |
| 20260904082029 | 15 | 184 | 0.0 | 1.6 | 0.00 | 0.00 | 0.00 | 74 | 1000.1 |
| 20260904081026 | 13 | 0.0 | 0.0 | 0.00 | 0.00 | 0.00 | 77 | 1000.3 | |
| 20260904080021 | 14 | 245 | 0.0 | 3.2 | 0.00 | 0.00 | 0.00 | 75 | 1000.5 |
| 20260904075036 | 13 | 0.0 | 0.0 | 0.00 | 0.00 | 0.00 | 76 | 1000.5 | |
| 20260904074031 | 12 | 251 | 0.0 | 3.2 | 0.00 | 0.00 | 0.00 | 80 | 1000.5 |
| 20260904073106 | 12 | 0.0 | 0.0 | 0.00 | 0.00 | 0.00 | 79 | 1000.6 | |
| 20260904072042 | 12 | 261 | 0.0 | 1.6 | 0.00 | 0.00 | 0.00 | 80 | 1000.6 |
| 20260904071017 | 12 | 0.0 | 0.0 | 0.00 | 0.00 | 0.00 | 81 | 1000.7 | |
| 20260904070033 | 11 | 0.0 | 0.0 | 0.00 | 0.00 | 0.00 | 83 | 1000.9 | |
| 20260904065049 | 10 | 0.0 | 0.0 | 0.00 | 0.00 | 0.00 | 85 | 1000.7 | |
| 20260904064023 | 10 | 250 | 0.0 | 1.6 | 0.00 | 0.00 | 0.00 | 87 | 1000.8 |
| 20260904063043 | 8 | 0.0 | 0.0 | 0.00 | 0.00 | 0.00 | 91 | 1000.8 | |
| 20260904062033 | 8 | 214 | 0.0 | 1.6 | 0.00 | 0.00 | 0.00 | 89 | 1000.8 |
| 20260904061048 | 8 | 0.0 | 0.0 | 0.00 | 0.00 | 0.00 | 91 | 1000.8 | |
| 20260904060023 | 7 | 0.0 | 0.0 | 0.00 | 0.00 | 0.00 | 93 | 1000.6 | |
| 20260904055020 | 7 | 0.0 | 0.0 | 0.00 | 0.00 | 0.00 | 93 | 1000.7 | |
| 20260904054016 | 6 | 252 | 0.0 | 4.8 | 0.00 | 0.00 | 0.00 | 95 | 1000.9 |
| 20260904053032 | 6 | 239 | 0.0 | 1.6 | 0.00 | 0.00 | 0.00 | 98 | 1001.0 |
| 20260904052027 | 6 | 0.0 | 0.0 | 0.00 | 0.00 | 0.00 | 99 | 1001.1 | |
| 20260904051023 | 5 | 0.0 | 0.0 | 0.00 | 0.00 | 0.00 | 99 | 1001.0 | |
| 20260904050038 | 5 | 0.0 | 0.0 | 0.00 | 0.00 | 0.00 | 99 | 1001.0 | |
| 20260904045135 | 5 | 0.0 | 0.0 | 0.00 | 0.00 | 0.00 | 99 | 1000.9 | |
| 20260904044030 | 3 | 0.0 | 0.0 | 0.00 | 0.00 | 0.00 | 99 | 1001.0 | |
| 20260904043025 | 3 | 0.0 | 0.0 | 0.00 | 0.00 | 0.00 | 99 | 1001.1 | |
| 20260904042020 | 2 | 0.0 | 0.0 | 0.00 | 0.00 | 0.00 | 99 | 1000.9 | |
| 20260904041016 | 3 | 0.0 | 0.0 | 0.00 | 0.00 | 0.00 | 99 | 1001.1 | |
| 20260904040031 | 3 | 0.0 | 0.0 | 0.00 | 0.00 | 0.00 | 99 | 1001.1 | |
| 20260904035026 | 4 | 0.0 | 0.0 | 0.00 | 0.00 | 0.00 | 99 | 1001.2 | |
| 20260904034041 | 5 | 0.0 | 0.0 | 0.00 | 0.00 | 0.00 | 99 | 1001.2 | |
| 20260904033017 | 5 | 0.0 | 0.0 | 0.00 | 0.00 | 0.00 | 99 | 1001.2 | |
| 20260904032032 | 5 | 225 | 0.0 | 1.6 | 0.00 | 0.00 | 0.00 | 99 | 1001.1 |
| 20260904031027 | 5 | 0.0 | 0.0 | 0.00 | 0.00 | 0.00 | 99 | 1001.2 | |
| 20260904030023 | 5 | 237 | 0.0 | 1.6 | 0.00 | 0.00 | 0.00 | 99 | 1001.5 |
| 20260904025019 | 5 | 0.0 | 0.0 | 0.00 | 0.00 | 0.00 | 99 | 1001.5 | |
| 20260904024054 | 5 | 0.0 | 0.0 | 0.00 | 0.00 | 0.00 | 99 | 1001.5 | |
| 20260904023029 | 5 | 0.0 | 0.0 | 0.00 | 0.00 | 0.00 | 99 | 1001.6 | |
| 20260904022025 | 3 | 0.0 | 0.0 | 0.00 | 0.00 | 0.00 | 99 | 1001.6 | |
| 20260904021021 | 3 | 0.0 | 0.0 | 0.00 | 0.00 | 0.00 | 99 | 1001.7 | |
| 20260904020016 | 4 | 0.0 | 0.0 | 0.00 | 0.00 | 0.00 | 99 | 1001.7 | |
| 20260904015032 | 5 | 0.0 | 0.0 | 0.00 | 0.00 | 0.00 | 99 | 1001.7 | |
| 20260904014026 | 5 | 0.0 | 0.0 | 0.00 | 0.00 | 0.00 | 99 | 1001.9 | |
| 20260904013042 | 5 | 0.0 | 0.0 | 0.00 | 0.00 | 0.00 | 99 | 1001.9 | |
| 20260904012057 | 5 | 0.0 | 0.0 | 0.00 | 0.00 | 0.00 | 99 | 1002.0 | |
| 20260904011033 | 5 | 0.0 | 0.0 | 0.00 | 0.00 | 0.00 | 99 | 1002.0 | |
| 20260904010028 | 5 | 0.0 | 0.0 | 0.00 | 0.00 | 0.00 | 99 | 1002.2 | |
| 20260904005023 | 6 | 0.0 | 0.0 | 0.00 | 0.00 | 0.00 | 99 | 1002.2 | |
| 20260904004039 | 5 | 0.0 | 0.0 | 0.00 | 0.00 | 0.00 | 99 | 1002.5 | |
| 20260904003035 | 5 | 0.0 | 0.0 | 0.00 | 0.00 | 0.00 | 99 | 1002.3 | |
| 20260904002031 | 5 | 0.0 | 0.0 | 0.00 | 0.00 | 0.00 | 99 | 1002.4 | |
| 20260904001026 | 5 | 0.0 | 0.0 | 0.00 | 0.00 | 0.00 | 99 | 1002.5 | |
| 20260904000021 | 6 | 0.0 | 0.0 | 0.00 | 0.00 | 0.00 | 99 | 1002.3 | |
| 20260903235016 | 6 | 0.0 | 0.0 | 0.00 | 0.00 | 0.00 | 99 | 1002.6 | |
| 20260903234032 | 6 | 0.0 | 0.0 | 0.00 | 0.00 | 0.00 | 99 | 1002.5 | |
| 20260903233027 | 6 | 0.0 | 0.0 | 0.00 | 0.00 | 0.00 | 99 | 1002.7 | |
| 20260903232023 | 6 | 0.0 | 0.0 | 0.00 | 0.00 | 0.00 | 98 | 1002.8 | |
| 20260903231018 | 7 | 0.0 | 0.0 | 0.00 | 0.00 | 0.00 | 98 | 1002.7 | |
| 20260903230033 | 7 | 0.0 | 0.0 | 0.00 | 0.00 | 0.00 | 98 | 1002.7 | |
| 20260903225029 | 7 | 0.0 | 0.0 | 0.00 | 0.00 | 0.00 | 98 | 1002.8 | |
| 20260903224023 | 7 | 0.0 | 0.0 | 0.00 | 0.00 | 0.00 | 98 | 1003.0 | |
| 20260903223019 | 6 | 0.0 | 0.0 | 0.00 | 0.00 | 0.00 | 98 | 1003.0 | |
| 20260903222034 | 6 | 0.0 | 0.0 | 0.00 | 0.00 | 0.00 | 99 | 1003.1 | |
| 20260903221030 | 6 | 0.0 | 0.0 | 0.00 | 0.00 | 0.00 | 99 | 1003.1 | |
| 20260903220025 | 6 | 0.0 | 0.0 | 0.00 | 0.00 | 0.00 | 98 | 1003.1 | |
| 20260903215020 | 6 | 0.0 | 0.0 | 0.00 | 0.00 | 0.00 | 98 | 1003.2 | |
| 20260903214015 | 7 | 0.0 | 0.0 | 0.00 | 0.00 | 0.00 | 98 | 1003.1 | |
| 20260903213032 | 7 | 0.0 | 0.0 | 0.00 | 0.00 | 0.00 | 98 | 1002.9 | |
| 20260903212026 | 7 | 0.0 | 0.0 | 0.00 | 0.00 | 0.00 | 98 | 1002.9 | |
| 20260903211022 | 7 | 0.0 | 0.0 | 0.00 | 0.00 | 0.00 | 98 | 1003.0 | |
| 20260903210016 | 7 | 0.0 | 0.0 | 0.00 | 0.00 | 0.00 | 97 | 1002.9 | |
| 20260903205033 | 7 | 0.0 | 0.0 | 0.00 | 0.00 | 0.00 | 97 | 1003.1 | |
| 20260903204027 | 7 | 0.0 | 0.0 | 0.00 | 0.00 | 0.00 | 95 | 1003.0 | |
| 20260903203023 | 7 | 0.0 | 0.0 | 0.00 | 0.00 | 0.00 | 94 | 1003.0 | |
| 20260903202019 | 8 | 0.0 | 0.0 | 0.00 | 0.00 | 0.00 | 93 | 1003.1 | |
| 20260903201034 | 8 | 0.0 | 0.0 | 0.00 | 0.00 | 0.00 | 91 | 1003.2 | |
| 20260903200029 | 9 | 0.0 | 0.0 | 0.00 | 0.00 | 0.00 | 91 | 1003.2 | |
| 20260903195025 | 9 | 0.0 | 0.0 | 0.00 | 0.00 | 0.00 | 90 | 1003.4 | |
| 20260903194020 | 10 | 0.0 | 0.0 | 0.00 | 0.00 | 0.00 | 88 | 1003.5 | |
| 20260903193015 | 10 | 0.0 | 0.0 | 0.00 | 0.00 | 0.00 | 87 | 1003.5 | |
| 20260903192030 | 10 | 0.0 | 0.0 | 0.00 | 0.00 | 0.00 | 85 | 1003.3 | |
| 20260903191030 | 10 | 0.0 | 0.0 | 0.00 | 0.00 | 0.00 | 85 | 1003.3 | |
| 20260903190021 | 11 | 0.0 | 0.0 | 0.00 | 0.00 | 0.00 | 84 | 1003.3 | |
| 20260903185016 | 12 | 0.0 | 0.0 | 0.00 | 0.00 | 0.00 | 80 | 1003.3 | |
| 20260903184032 | 11 | 0.0 | 0.0 | 0.00 | 0.00 | 0.00 | 82 | 1003.2 | |
| 20260903183027 | 11 | 0.0 | 0.0 | 0.00 | 0.00 | 0.00 | 82 | 1003.2 | |
| 20260903182043 | 11 | 0.0 | 0.0 | 0.00 | 0.00 | 0.00 | 78 | 1003.4 | |
| 20260903181018 | 12 | 0.0 | 0.0 | 0.00 | 0.00 | 0.00 | 74 | 1003.4 | |
| 20260903180034 | 14 | 0.0 | 0.0 | 0.00 | 0.00 | 0.00 | 67 | 1003.5 | |
| 20260903175030 | 15 | 239 | 0.0 | 3.2 | 0.00 | 0.00 | 0.00 | 63 | 1003.6 |
| 20260903174024 | 14 | 0.0 | 0.0 | 0.00 | 0.00 | 0.00 | 70 | 1003.7 | |
| 20260903173020 | 15 | 0.0 | 0.0 | 0.00 | 0.00 | 0.00 | 71 | 1003.3 |